This is the latest recevied weather packets stored in our database for station/object R6DH-11. If no packets are shown the sender has not sent any weather packets the latest 10 day(s).
| Time | Temp. | Humidity | Pressure | Rain* | Wind** | Luminosity | Snow |
|---|---|---|---|---|---|---|---|
| 1778121115 | 10° C | 76% | 1015.7 hPa | - | - | - | - |
| 1778120213 | 10° C | 76% | 1015.6 hPa | - | - | - | - |
| 1778119312 | 10° C | 77% | 1015.4 hPa | - | - | - | - |
| 1778118410 | 10° C | 77% | 1015.3 hPa | - | - | - | - |
| 1778117509 | 10° C | 78% | 1015.3 hPa | - | - | - | - |
| 1778116607 | 10.56° C | 77% | 1015.2 hPa | - | - | - | - |
| 1778115705 | 10° C | 76% | 1015 hPa | - | - | - | - |
| 1778114804 | 10° C | 75% | 1015 hPa | - | - | - | - |
| 1778113902 | 10° C | 74% | 1015 hPa | - | - | - | - |
| 1778113001 | 10° C | 74% | 1014.9 hPa | - | - | - | - |
| 1778112100 | 10.56° C | 73% | 1014.8 hPa | - | - | - | - |
| 1778111198 | 10.56° C | 72% | 1014.7 hPa | - | - | - | - |
| 1778110296 | 10.56° C | 71% | 1014.5 hPa | - | - | - | - |
| 1778109394 | 11.11° C | 71% | 1014.5 hPa | - | - | - | - |
| 1778108493 | 10.56° C | 71% | 1014.6 hPa | - | - | - | - |
| 1778107591 | 10.56° C | 72% | 1014.7 hPa | - | - | - | - |
| 1778106690 | 10.56° C | 71% | 1014.6 hPa | - | - | - | - |
| 1778105788 | 11.11° C | 70% | 1014.7 hPa | - | - | - | - |
| 1778104887 | 11.11° C | 70% | 1014.7 hPa | - | - | - | - |
| 1778103985 | 11.67° C | 69% | 1014.7 hPa | - | - | - | - |
| 1778103084 | 12.22° C | 68% | 1014.6 hPa | - | - | - | - |
| 1778102182 | 12.22° C | 67% | 1014.5 hPa | - | - | - | - |
| 1778101318 | 12.78° C | 66% | 1014.4 hPa | - | - | - | - |
| 1778100416 | 11.67° C | 65% | 1012.3 hPa | - | - | - | - |
| 1778099514 | 12.78° C | 65% | 1014.5 hPa | - | - | - | - |
* Rain since midnight (hover to see other rain measurements)
** Current wind speed in m/s (hover to see current wind gust speed)